Miscellaneous Local Product
Issued by NWS Hastings, NE

Home | Current Version | Previous Version | Graphics & Text | Print | Product List | Glossary On
Versions: 1 2 3 4 5 6 7 8 9 10 11 12 13 14 15 16 17 18 19 20 21 22 23 24 25 26 27 28 29 30 31 32 33 34 35 36 37 38 39 40 41 42 43 44 45 46 47 48 49 50
031
AXUS43 KGID 291402
MISGRI

GID CWA HOURLY WEATHER ROUNDUP
NATIONAL WEATHER SERVICE HASTINGS NE
900 AM CDT FRI JUL 29 2016

NOTE: "FAIR" INDICATES FEW OR NO CLOUDS BELOW 12,000 FEET WITH NO
SIGNIFICANT WEATHER AND/OR OBSTRUCTIONS TO VISIBILITY.

...SOUTH CENTRAL NEBRASKA...

CITY           SKY/WX    TMP DP  RH WIND       PRES   REMARKS
GRAND ISLAND   CLOUDY    68  63  84 NE3       30.11R
HASTINGS       PTSUNNY   70  65  84 NE5       30.11S
ORD            CLOUDY    66  63  90 W3        30.10R
YORK           CLOUDY    68  66  94 NE6       30.10S
AURORA         CLOUDY    69  67  94 NE3       30.10S
LEXINGTON      PTSUNNY   65  63  92 CALM      30.13S
HOLDREGE       CLOUDY    65  63  92 NE5       30.13R
HEBRON         CLOUDY    71  63  76 N7        30.08S

...NEBRASKA PANHANDLE...

CITY           SKY/WX    TMP DP  RH WIND       PRES   REMARKS
CHADRON        SUNNY     63  58  83 CALM      30.14R
ALLIANCE       FOG       59  59 100 CALM      30.15S VSB 1/4
SCOTTSBLUFF    SUNNY     63  59  87 S5        30.16R
SIDNEY         SUNNY     65  60  84 NW3       30.18R

...WESTERN AND NORTH CENTRAL NEBRASKA...

CITY           SKY/WX    TMP DP  RH WIND       PRES   REMARKS
VALENTINE      NOT AVBL
AINSWORTH      CLOUDY    63  63 100 E3        30.13S
ONEILL         CLOUDY    66  63  90 NE6       30.12R
BROKEN BOW     CLOUDY    64  63  96 N3        30.13R
IMPERIAL       SUNNY     66  62  87 NE6       30.15R
NORTH PLATTE   CLOUDY    63  61  93 CALM      30.14R FOG
MCCOOK         PTSUNNY   66  64  93 NE5       30.13R FOG

...EASTERN NEBRASKA...

CITY           SKY/WX    TMP DP  RH WIND       PRES   REMARKS
NORFOLK        PTSUNNY   68  61  78 N3        30.09R
SO SIOUX CITY  SUNNY     72  62  71 CALM      30.07S
TEKAMAH        SUNNY     68  63  84 N5        30.08R
COLUMBUS       CLOUDY    66  57  72 E3        30.10R
ALBION         CLOUDY    66  61  83 NE8       30.10S
OMAHA EPPLEY   CLOUDY    69  60  73 SE3       30.09R
MILLARD        CLOUDY    69  63  81 SE3       30.09R
LINCOLN        LGT RAIN  69  66  90 E3        30.09S FOG
NEBRASKA CITY  CLOUDY    68  68 100 N6        30.07S
BEATRICE       CLOUDY    69  64  83 NE3       30.07S
FALLS CITY     CLOUDY    71  66  84 NE6       30.04R

...NORTHERN KANSAS...

CITY           SKY/WX    TMP DP  RH WIND       PRES   REMARKS
GOODLAND       CLOUDY    67  62  84 NE3       30.16R
HILL CITY      PTSUNNY   69  64  84 NE5       30.10S
NORTON         SUNNY     68  61  77 NE3       30.11S
SMITH CENTER   SUNNY     70  63  78 NE6       30.09S
BELOIT         SUNNY     70  66  88 NE7       30.06S
HAYS           CLOUDY    70  61  73 CALM      30.09R
RUSSELL        PTSUNNY   70  68  93 N6        30.07S
CONCORDIA      MOSUNNY   71  66  84 NE5       30.07R
SALINA         PTSUNNY   74  68  81 N3        30.05S
TOPEKA         CLOUDY    73  68  84 NE7       30.03R



USA.gov is the U.S. government's official web portal to all federal, state and local government web resources and services.